Location: Kalberh�ni
(46.4610°N, 7.2453°E)
Time: 20:21:52
(UTC+00:00)

Cosmos 1626 - Pass Details

Date: 28 October 2021
Orbit: 487 x 492 km, 82.5° (Epoch: 03 December)

Event Time Altitude Azimuth Distance (km) Brightness Sun altitude
Exits shadow 03:50:15 18° 5° (N) 1,278 4.3 -24.0°
Drops below altitude 10° 03:51:17 10° 7° (N) 1,699 4.9 -23.8°
Sets 03:53:24 0° 8° (N) 2,586 5.9 -23.5°
